Location: Seminole
(32.7190°N, 102.6440°W)
Time: 06:38:38
(UTC-06:00)

Meteor 2-10 - Visible Passes

Search period start: 14 February 2016 00:00
Search period end: 24 February 2016 00:00
Orbit: 738 x 869 km, 81.2° (Epoch: 13 February)

Date Brightness Start Highest point End Pass type
(mag) Time Alt. Az. Time Alt. Az. Time Alt. Az.
14 Feb 6.9 04:13:41 11° ESE 04:15:07 12° E 04:16:57 10° ENE visible
14 Feb 4.0 05:54:54 40° SW 05:56:23 54° W 06:01:27 10° N visible
15 Feb 4.0 05:31:04 67° N 05:31:04 67° N 05:35:34 10° N visible
16 Feb 5.2 05:06:32 34° NNE 05:06:32 34° NNE 05:09:31 10° NNE visible
16 Feb 5.8 06:47:37 11° WNW 06:47:37 11° WNW 06:48:22 10° NW visible
17 Feb 6.2 04:41:39 19° NE 04:41:39 19° NE 04:43:17 10° NNE visible
17 Feb 5.8 06:22:43 14° NW 06:22:43 14° NW 06:24:02 10° NNW visible
18 Feb 6.8 04:16:34 11° NE 04:16:34 11° NE 04:16:50 10° NE visible
18 Feb 5.9 05:57:38 15° NNW 05:57:38 15° NNW 05:58:48 10° NNW visible
19 Feb 6.1 05:32:24 14° NNW 05:32:24 14° NNW 05:33:14 10° N visible
20 Feb 6.4 05:07:04 12° N 05:07:04 12° N 05:07:28 10° N visible
